Weather History for KRKS - May, 2013

Change the Weather History Date:

Wednesday, May 22, 2013

  Actual Average Record
Temperature  
Mean Temperature 58 °F 53 °F  
Max Temperature 73 °F 66 °F 81 °F (1967)
Min Temperature 42 °F 39 °F 26 °F (1974)
Degree Days  
Heating Degree Days 7 12  
Month to date heating degree days 288 344  
Since 1 July heating degree days 7501 7876  
Cooling Degree Days 0 0  
Month to date cooling degree days 1 0  
Year to date cooling degree days 1 0  
Growing Degree Days 8 (Base 50)    
Moisture  
Dew Point 29 °F    
Average Humidity 42    
Maximum Humidity 70    
Minimum Humidity 13    
Precipitation  
Precipitation 0.00 in 0.04 in 0.39 in (1956)
Month to date precipitation 0.56 0.87  
Year to date precipitation 0.56 3.39  
Sea Level Pressure  
Sea Level Pressure 29.65 in    
Wind  
Wind Speed 13 mph (SSE)    
Max Wind Speed 31 mph    
Max Gust Speed 38 mph    
Visibility 10 miles    
Events      
T = Trace of Precipitation, MM = Missing Value Source: NWS Daily Summary

Daily Weather History Graph

Daily Weather History Graph

Search for Another Location

Airport or City:

Trip Planner

Search our weather history database for the weather conditions in past years. The results will help you decide how hot, cold, wet, or windy it might be!

Date:

Astronomy

May. 22, 2013 Rise Set
Actual Time 5:50 AM MDT 8:35 PM MDT
Civil Twilight 5:18 AM MDT 9:08 PM MDT
Nautical Twilight 4:37 AM MDT 9:49 PM MDT
Astronomical Twilight 3:50 AM MDT 10:36 PM MDT
Moon 6:00 PM MDT (5/22) 3:58 AM MDT (5/22)
Length of Visible Light 15h 50m
Length of Day
14h 45m
Waxing Gibbous, 92% of the Moon is Illuminated
May 22
Waxing Gibbous
May 24
Full
May 31
Last Quarter
Jun 8
New
Jun 16
First Quarter

Hourly Weather History & Observations

Time (MDT) Temp. Windchill Dew Point Humidity Pressure Visibility Wind Dir Wind Speed Gust Speed Precip Events Conditions
12:54 AM 50.0 °F - 37.0 °F 61% 29.78 in 10.0 mi SSE 5.8 mph - N/A   Clear
1:54 AM 48.9 °F - 37.0 °F 64% 29.76 in 10.0 mi SSE 5.8 mph - N/A   Clear
2:54 AM 48.0 °F - 36.0 °F 63% 29.75 in 10.0 mi SSE 5.8 mph - N/A   Clear
3:54 AM 45.0 °F 41.2 °F 36.0 °F 71% 29.74 in 10.0 mi SE 6.9 mph - N/A   Clear
4:54 AM 46.9 °F - 34.0 °F 61% 29.73 in 10.0 mi SSE 9.2 mph - N/A   Clear
5:54 AM 42.1 °F 38.4 °F 34.0 °F 73% 29.74 in 10.0 mi ENE 5.8 mph - N/A   Clear
6:54 AM 46.0 °F 43.9 °F 35.1 °F 66% 29.74 in 10.0 mi East 4.6 mph - N/A   Clear
7:54 AM 52.0 °F - 37.9 °F 59% 29.72 in 10.0 mi ENE 8.1 mph - N/A   Clear
8:54 AM 57.0 °F - 36.0 °F 45% 29.71 in 10.0 mi ESE 9.2 mph - N/A   Clear
9:54 AM 60.1 °F - 35.1 °F 39% 29.70 in 10.0 mi SE 9.2 mph 17.3 mph N/A   Clear
10:54 AM 66.0 °F - 34.0 °F 30% 29.66 in 10.0 mi South 16.1 mph 24.2 mph N/A   Clear
11:54 AM 69.1 °F - 28.0 °F 22% 29.64 in 10.0 mi SSE 13.8 mph 23.0 mph N/A   Clear
12:54 PM 69.1 °F - 25.0 °F 19% 29.63 in 10.0 mi South 13.8 mph 26.5 mph N/A   Partly Cloudy
1:54 PM 72.0 °F - 21.9 °F 15% 29.61 in 10.0 mi SSW 21.9 mph 27.6 mph N/A   Clear
2:54 PM 73.0 °F - 23.0 °F 15% 29.60 in 10.0 mi South 19.6 mph 35.7 mph N/A   Clear
3:54 PM 73.0 °F - 19.9 °F 14% 29.60 in 10.0 mi SSW 15.0 mph 32.2 mph N/A   Clear
4:54 PM 72.0 °F - 21.0 °F 15% 29.57 in 10.0 mi South 24.2 mph 31.1 mph N/A   Clear
5:54 PM 72.0 °F - 23.0 °F 16% 29.60 in 10.0 mi SSW 17.3 mph - N/A   Clear
6:54 PM 70.0 °F - 24.1 °F 18% 29.57 in 10.0 mi South 20.7 mph 26.5 mph N/A   Partly Cloudy
7:54 PM 69.1 °F - 25.0 °F 19% 29.56 in 10.0 mi South 11.5 mph - N/A   Clear
8:54 PM 66.0 °F - 23.0 °F 20% 29.55 in 10.0 mi South 11.5 mph - N/A   Clear
9:54 PM 62.1 °F - 26.1 °F 25% 29.57 in 10.0 mi SSE 10.4 mph - N/A   Clear
10:54 PM 60.1 °F - 25.0 °F 26% 29.57 in 10.0 mi SE 13.8 mph - N/A   Clear
11:54 PM 59.0 °F - 25.0 °F 27% 29.55 in 10.0 mi SE 15.0 mph - N/A   Clear